When you browse on this site, cookies collect data to enhance your experience and personalize the content and advertising you see.
Visit our Privacy Policy to learn more. By continuing to use the site, you agree to this use of cookies and data.
  • în România
  • Lista ţărilor
  • Pe 7 zile
  • Temperatura apei
  • Meteo pe hartă
  • Widget-uri
  • user-avatar
    Intrare

    Meteo pe oră la Cordoba

    Astăzi, 26 Mai, Marţi

    Timp Temperatura Precipitaţii Vânt Presiune Umiditate
    00:00 +22°C° 0 mm 1 m/s 757 mmHg 55%
    01:00 +21°C° 0 mm 1 m/s 757 mmHg 57%
    02:00 +21°C° 0 mm 1 m/s 756 mmHg 59%
    03:00 +18°C° 0 mm 0 m/s 756 mmHg 61%
    04:00 +19°C° 0 mm 0 m/s 756 mmHg 61%
    05:00 +19°C° 0 mm 0 m/s 756 mmHg 62%
    06:00 +20°C° 0 mm 0 m/s 756 mmHg 62%
    07:00 +24°C° 0 mm 1 m/s 756 mmHg 55%
    08:00 +26°C° 0 mm 1 m/s 757 mmHg 47%
    09:00 +29°C° 0 mm 2 m/s 757 mmHg 40%
    10:00 +31°C° 0 mm 2 m/s 756 mmHg 35%
    11:00 +33°C° 0 mm 1 m/s 756 mmHg 30%
    12:00 +35°C° 0 mm 1 m/s 756 mmHg 26%
    13:00 +35°C° 0 mm 1 m/s 756 mmHg 24%
    14:00 +37°C° 0 mm 2 m/s 755 mmHg 23%
    15:00 +37°C° 0 mm 2 m/s 755 mmHg 21%
    16:00 +36°C° 0 mm 2 m/s 755 mmHg 25%
    17:00 +35°C° 0 mm 3 m/s 754 mmHg 28%
    18:00 +33°C° 0 mm 4 m/s 754 mmHg 32%
    19:00 +30°C° 0.1 mm 3 m/s 755 mmHg 41%
    20:00 +27°C° 0.1 mm 3 m/s 755 mmHg 50%
    21:00 +24°C° 0.1 mm 2 m/s 756 mmHg 58%
    22:00 +24°C° 0 mm 2 m/s 756 mmHg 60%
    23:00 +23°C° 0 mm 1 m/s 756 mmHg 62%

    Mâine, 27 Mai, Miercuri

    Timp Temperatura Precipitaţii Vânt Presiune Umiditate
    00:00 +23°C° 0 mm 1 m/s 756 mmHg 63%
    01:00 +22°C° 0 mm 1 m/s 755 mmHg 65%
    02:00 +22°C° 0 mm 1 m/s 755 mmHg 66%
    03:00 +21°C° 0 mm 1 m/s 755 mmHg 67%
    04:00 +22°C° 0 mm 1 m/s 755 mmHg 67%
    05:00 +22°C° 0 mm 1 m/s 755 mmHg 68%
    06:00 +22°C° 0 mm 1 m/s 755 mmHg 68%
    07:00 +25°C° 0 mm 1 m/s 755 mmHg 57%
    08:00 +27°C° 0 mm 2 m/s 756 mmHg 47%
    09:00 +29°C° 0 mm 2 m/s 756 mmHg 36%
    10:00 +31°C° 0 mm 2 m/s 756 mmHg 33%
    11:00 +32°C° 0 mm 2 m/s 755 mmHg 30%
    12:00 +35°C° 0 mm 2 m/s 755 mmHg 26%
    13:00 +35°C° 0 mm 2 m/s 755 mmHg 25%
    14:00 +35°C° 0 mm 1 m/s 755 mmHg 24%
    15:00 +36°C° 0 mm 1 m/s 754 mmHg 23%
    16:00 +36°C° 0 mm 2 m/s 754 mmHg 27%
    17:00 +35°C° 0 mm 3 m/s 754 mmHg 30%
    18:00 +33°C° 0 mm 4 m/s 754 mmHg 33%
    19:00 +30°C° 0 mm 3 m/s 754 mmHg 40%
    20:00 +27°C° 0 mm 2 m/s 755 mmHg 47%
    21:00 +24°C° 0 mm 2 m/s 756 mmHg 54%
    22:00 +24°C° 0 mm 1 m/s 756 mmHg 56%
    23:00 +23°C° 0 mm 1 m/s 756 mmHg 58%

    Poimâine, 28 Mai, Joi

    Timp Temperatura Precipitaţii Vânt Presiune Umiditate
    00:00 +22°C° 0 mm 1 m/s 756 mmHg 60%
    01:00 +22°C° 0 mm 1 m/s 756 mmHg 60%
    02:00 +21°C° 0 mm 1 m/s 755 mmHg 60%
    03:00 +21°C° 0 mm 1 m/s 755 mmHg 60%
    04:00 +21°C° 0 mm 1 m/s 755 mmHg 59%
    05:00 +21°C° 0 mm 1 m/s 755 mmHg 58%
    06:00 +21°C° 0 mm 1 m/s 755 mmHg 56%
    07:00 +24°C° 0 mm 2 m/s 755 mmHg 49%
    08:00 +26°C° 0 mm 2 m/s 755 mmHg 42%
    09:00 +28°C° 0 mm 3 m/s 755 mmHg 35%
    10:00 +30°C° 0 mm 3 m/s 755 mmHg 32%
    11:00 +32°C° 0 mm 2 m/s 754 mmHg 29%
    12:00 +34°C° 0 mm 2 m/s 754 mmHg 26%
    13:00 +35°C° 0 mm 2 m/s 754 mmHg 25%
    14:00 +36°C° 0 mm 2 m/s 753 mmHg 24%
    15:00 +35°C° 0 mm 1 m/s 753 mmHg 24%
    16:00 +36°C° 0 mm 2 m/s 752 mmHg 25%
    17:00 +35°C° 0 mm 2 m/s 752 mmHg 27%
    18:00 +34°C° 0 mm 2 m/s 752 mmHg 29%
    19:00 +30°C° 0 mm 2 m/s 753 mmHg 37%
    20:00 +27°C° 0 mm 2 m/s 753 mmHg 46%
    21:00 +24°C° 0 mm 2 m/s 754 mmHg 54%
    22:00 +23°C° 0 mm 2 m/s 754 mmHg 59%
    23:00 +23°C° 0 mm 1 m/s 754 mmHg 63%

    29 Mai, Vineri

    Timp Temperatura Precipitaţii Vânt Presiune Umiditate
    00:00 +22°C° 0 mm 1 m/s 754 mmHg 67%
    01:00 +21°C° 0 mm 1 m/s 754 mmHg 69%
    02:00 +21°C° 0 mm 1 m/s 754 mmHg 72%
    03:00 +18°C° 0 mm 0 m/s 753 mmHg 74%
    04:00 +20°C° 0 mm 1 m/s 753 mmHg 72%
    05:00 +21°C° 0 mm 1 m/s 753 mmHg 71%
    06:00 +21°C° 0 mm 1 m/s 753 mmHg 69%
    07:00 +24°C° 0 mm 1 m/s 753 mmHg 58%
    08:00 +26°C° 0 mm 2 m/s 753 mmHg 47%
    09:00 +29°C° 0 mm 2 m/s 753 mmHg 36%
    10:00 +30°C° 0 mm 2 m/s 753 mmHg 31%
    11:00 +32°C° 0 mm 2 m/s 752 mmHg 27%
    12:00 +35°C° 0 mm 2 m/s 752 mmHg 22%
    13:00 +36°C° 0 mm 2 m/s 752 mmHg 21%
    14:00 +36°C° 0 mm 2 m/s 751 mmHg 20%
    15:00 +36°C° 0 mm 1 m/s 751 mmHg 19%
    16:00 +36°C° 0 mm 2 m/s 751 mmHg 21%
    17:00 +36°C° 0 mm 2 m/s 750 mmHg 23%
    18:00 +35°C° 0 mm 3 m/s 750 mmHg 25%
    19:00 +31°C° 0 mm 2 m/s 751 mmHg 31%
    20:00 +28°C° 0 mm 2 m/s 751 mmHg 38%
    21:00 +25°C° 0 mm 2 m/s 752 mmHg 44%
    22:00 +24°C° 0 mm 2 m/s 752 mmHg 46%
    23:00 +23°C° 0 mm 2 m/s 752 mmHg 48%

    30 Mai, Sâmbătă

    Timp Temperatura Precipitaţii Vânt Presiune Umiditate
    00:00 +21°C° 0 mm 2 m/s 752 mmHg 49%
    01:00 +20°C° 0 mm 2 m/s 752 mmHg 52%
    02:00 +20°C° 0 mm 1 m/s 752 mmHg 55%
    03:00 +20°C° 0 mm 1 m/s 752 mmHg 58%
    04:00 +20°C° 0 mm 1 m/s 752 mmHg 59%
    05:00 +20°C° 0 mm 1 m/s 752 mmHg 60%
    06:00 +20°C° 0 mm 1 m/s 752 mmHg 60%
    07:00 +23°C° 0 mm 1 m/s 752 mmHg 52%
    08:00 +26°C° 0 mm 2 m/s 752 mmHg 43%
    09:00 +29°C° 0 mm 2 m/s 752 mmHg 35%
    10:00 +31°C° 0 mm 2 m/s 752 mmHg 30%
    11:00 +32°C° 0 mm 2 m/s 751 mmHg 25%
    12:00 +35°C° 0 mm 2 m/s 751 mmHg 20%
    13:00 +36°C° 0 mm 2 m/s 751 mmHg 19%
    14:00 +37°C° 0 mm 2 m/s 750 mmHg 17%
    15:00 +38°C° 0 mm 2 m/s 750 mmHg 16%
    16:00 +37°C° 0 mm 2 m/s 750 mmHg 19%
    17:00 +35°C° 0 mm 3 m/s 749 mmHg 22%
    18:00 +34°C° 0 mm 4 m/s 749 mmHg 25%
    19:00 +30°C° 0 mm 3 m/s 750 mmHg 33%
    20:00 +27°C° 0 mm 2 m/s 750 mmHg 40%
    21:00 +24°C° 0 mm 1 m/s 750 mmHg 48%
    22:00 +23°C° 0 mm 1 m/s 751 mmHg 48%
    23:00 +22°C° 0 mm 1 m/s 751 mmHg 49%

    31 Mai, Duminică

    Timp Temperatura Precipitaţii Vânt Presiune Umiditate
    00:00 +22°C° 0 mm 1 m/s 751 mmHg 50%
    01:00 +21°C° 0 mm 1 m/s 751 mmHg 49%
    02:00 +21°C° 0 mm 1 m/s 751 mmHg 48%
    03:00 +21°C° 0 mm 1 m/s 750 mmHg 47%
    04:00 +21°C° 0 mm 1 m/s 751 mmHg 48%
    05:00 +21°C° 0 mm 1 m/s 751 mmHg 48%
    06:00 +21°C° 0 mm 1 m/s 751 mmHg 48%
    07:00 +24°C° 0 mm 1 m/s 751 mmHg 43%
    08:00 +26°C° 0 mm 1 m/s 751 mmHg 38%
    09:00 +29°C° 0 mm 1 m/s 751 mmHg 32%
    10:00 +31°C° 0 mm 1 m/s 751 mmHg 28%
    11:00 +32°C° 0 mm 1 m/s 751 mmHg 24%
    12:00 +34°C° 0 mm 1 m/s 751 mmHg 19%
    13:00 +35°C° 0 mm 1 m/s 751 mmHg 18%
    14:00 +36°C° 0 mm 2 m/s 750 mmHg 17%
    15:00 +37°C° 0 mm 2 m/s 750 mmHg 16%
    16:00 +36°C° 0 mm 3 m/s 749 mmHg 19%
    17:00 +35°C° 0 mm 3 m/s 749 mmHg 21%
    18:00 +34°C° 0 mm 4 m/s 749 mmHg 23%
    19:00 +30°C° 0 mm 3 m/s 749 mmHg 28%
    20:00 +27°C° 0 mm 2 m/s 750 mmHg 33%
    21:00 +24°C° 0 mm 2 m/s 750 mmHg 37%
    22:00 +23°C° 0 mm 2 m/s 750 mmHg 39%
    23:00 +23°C° 0 mm 1 m/s 750 mmHg 42%
    Arată mai mult